Location: Charenton
(48.8221°N, 2.4122°E)
Time: 22:13:27
(UTC+00:00)

Daily predictions for brighter satellites

Satellite Brightness Start Highest point End
(mag) Time Altitude Azimuth Time Altitude Azimuth Time Altitude Azimuth
MOS 1 Rocket 4.2 20:27:42 10° SE 20:32:48 45° ENE 20:37:50 10° N
Cosmos 2285 Rocket 4.2 20:28:15 10° SSW 20:34:36 83° WNW 20:41:03 10° NNE
Cosmos 2333 Rocket 3.7 20:29:50 10° NNW 20:34:42 27° NE 20:39:34 10° ESE
Cosmos 841 Rocket 4.3 20:30:16 10° NNW 20:35:14 40° ENE 20:40:10 10° SE
Atlas Centaur 2 4.3 20:31:33 10° SW 20:37:04 20° S 20:42:34 10° SE
Cosmos 1441 Rocket 3.4 20:34:23 10° N 20:37:55 50° ENE 20:41:26 10° SSE
SL-16 R/B 2.7 20:32:28 10° NNW 20:38:00 50° NE 20:43:29 10° SE
ERS-1 Rocket 3.1 20:34:17 10° SSE 20:39:16 70° ENE 20:44:18 10° N
Cosmos 1763 Rocket 3.7 20:34:11 10° NNW 20:39:27 73° WSW 20:44:37 10° SSE
Cosmos 2369 4.2 20:33:58 10° NNW 20:39:38 62° WSW 20:45:15 10° SSE
Resurs 01 Rocket 3.8 20:37:45 10° SSW 20:41:18 23° W 20:44:52 10° NW
RESURS DK-1 3.7 20:37:44 10° NNW 20:41:21 29° NE 20:44:57 10° ESE
Cosmos 2082 Rocket 2.3 20:37:35 10° SSW 20:43:19 86° WNW 20:49:04 10° NNE
Spot 2 Rocket 3.7 20:38:55 10° SSE 20:43:52 59° ENE 20:48:53 10° N
Cosmos 1933 Rocket 3.6 20:41:28 10° N 20:45:55 86° E 20:50:21 10° S
Cosmos 1470 2.7 20:42:50 10° NNW 20:46:32 81° W 20:50:13 10° S
SPOT 5 3.0 20:44:17 10° S 20:48:33 62° WSW 20:52:54 10° NNW
Cosmos 1300 4.1 20:47:05 10° NNE 20:49:58 22° ENE 20:52:49 10° SE
Cosmos 1908 3.0 20:50:07 10° N 20:53:44 84° E 20:57:20 10° S
Cosmos 1346 Rocket 4.1 20:55:14 10° NNE 20:58:30 25° ENE 21:01:35 11° SE
Cosmos 1674 3.6 20:57:01 10° SSW 21:00:21 45° WNW 21:03:43 10° N
ATLAS 2AS CENTAUR R/B 3.4 20:53:58 10° NW 21:00:40 49° NE 21:07:07 10° ESE
Meteor 1-22 Rocket 4.4 20:57:09 10° N 21:02:44 68° ENE 21:08:26 10° SSE
Cosmos 468 Rocket 4.3 21:01:24 10° NNW 21:06:36 64° WSW 21:11:42 10° S
Ariane Rocket 3.0 21:03:17 10° SSE 21:08:22 88° ENE 21:13:31 10° NNW
Cosmos 1758 3.9 21:06:04 10° N 21:09:48 41° ENE 21:12:54 14° SE
Cosmos 1842 4.3 21:06:59 10° SSW 21:10:29 43° WNW 21:14:01 10° N
Cosmos 1356 Rocket 4.4 21:09:22 13° SSE 21:12:35 31° E 21:16:19 10° NNE
COSMOS 2406 3.8 21:10:54 10° SW 21:16:36 62° WNW 21:22:19 10° NNE
SPOT 3 Rocket 3.6 21:12:14 10° SSE 21:17:20 86° WSW 21:22:32 10° NNW
Meteor 1-13 Rocket 4.3 21:13:25 10° S 21:19:15 87° W 21:24:59 10° N
Cosmos 1707 Rocket 4.3 21:16:09 13° SSE 21:19:41 38° E 21:23:48 10° NNE
SL-27 R/B 3.7 21:19:33 15° ESE 21:20:07 16° E 21:21:55 10° ENE
ARIANE 5 R/B 4.3 21:17:35 10° ESE 21:20:53 22° ENE 21:24:12 10° NNE
Cosmos 1980 Rocket 4.1 21:17:42 10° NW 21:22:04 23° WSW 21:26:26 10° SSW
Cosmos 2322 Rocket 2.4 21:16:59 10° NNW 21:22:40 67° ENE 21:27:28 15° SE
S3M 4.1 21:16:25 10° N 21:22:51 86° W 21:29:06 10° S
Spot 1 4.4 21:19:50 10° NNE 21:24:12 52° ESE 21:28:33 11° S
Cosmos 1655 Rocket 4.1 21:23:10 10° S 21:29:29 67° E 21:35:51 10° NNE
SJ 16-02 2.7 21:28:53 16° SE 21:30:56 22° E 21:34:17 10° NE
Cosmos 2278 4.1 21:25:53 10° NW 21:31:31 58° WSW 21:36:25 13° S
Landsat 5 3.5 21:27:42 10° NNE 21:31:37 56° E 21:35:02 14° S
Landsat 4 4.4 21:32:54 12° S 21:35:55 42° W 21:39:13 10° NNW
Cosmos 1741 Rocket 4.2 21:31:50 10° S 21:36:51 52° ESE 21:42:00 10° NNE
Tiangong 0.1 21:35:47 10° SW 21:37:15 13° SSW 21:37:28 13° SSW
USA 281 3.7 21:32:45 13° SE 21:38:30 54° NE 21:44:53 10° NNW
Cosmos 2266 Rocket 4.2 21:32:55 10° SSW 21:39:13 78° W 21:45:40 10° N
Cosmos 1400 Rocket 2.8 21:35:32 10° SSW 21:39:26 77° WNW 21:43:18 10° N
COSMOS 2428 4.4 21:35:48 10° NNW 21:40:28 25° NE 21:45:06 10° E
Cosmos 1733 Rocket 3.1 21:36:41 10° N 21:41:06 73° E 21:44:16 19° SSE
MetOp-A 4.1 21:37:25 16° SSE 21:41:35 85° ENE 21:46:54 10° NNW
Okean 3 4.0 21:39:26 19° SSE 21:42:01 41° E 21:45:56 10° NNE
Terra 3.0 21:38:16 10° SSW 21:42:38 37° W 21:47:02 10° NNW
Cosmos 968 Rocket 3.9 21:41:01 15° S 21:44:55 44° ESE 21:49:50 10° NE
Cosmos 1814 Rocket 4.5 21:40:54 10° NNW 21:46:06 54° ENE 21:50:00 18° SE
SL-4 R/B 2.5 21:43:02 10° W 21:46:53 59° N 21:51:00 10° ENE
Cosmos 2228 Rocket 3.1 21:44:42 13° S 21:48:42 83° E 21:53:18 10° N
Cosmos 2219 Rocket 2.8 21:45:50 10° NNW 21:51:20 49° NE 21:55:47 16° SE
Cosmos 1315 Rocket 3.9 21:51:04 21° SE 21:52:51 30° E 21:56:22 10° NNE
ATLAS CENTAUR R/B 1.4 21:52:13 21° S 21:54:09 40° ESE 21:57:32 10° NE
Meteor 2-10 Rocket 4.0 21:50:32 10° NNW 21:56:06 61° W 22:00:34 15° S
SeaSat 1 4.3 21:52:42 10° SSW 21:56:23 21° WSW 22:00:05 10° WNW
Cosmos 1953 3.0 21:55:17 10° N 21:58:54 38° ENE 22:00:51 22° SE
Cosmos 1455 3.0 21:58:53 10° N 22:02:08 34° ENE 22:03:41 23° ESE
H-2A R/B 3.8 21:59:30 16° ESE 22:02:10 31° ENE 22:05:56 10° N
Cosmos 1242 Rocket 3.9 22:04:20 15° E 22:04:22 15° E 22:06:08 10° NE
USA 234 3.7 21:59:50 10° NE 22:06:19 67° NNW 22:12:47 10° WSW
Okean 1-7 3.4 22:04:58 24° SSE 22:07:16 48° E 22:11:27 10° NNE
BREEZE-M DEB (TANK) 2.6 22:06:06 10° W 22:08:10 40° SSW 22:09:09 29° SSE
CZ-2C R/B 3.9 22:04:56 10° NNE 22:09:14 50° E 22:11:36 24° SSE
Cosmos 2360 Rocket 2.3 22:08:48 10° NNW 22:14:27 69° WSW 22:18:06 22° SSE
ALOS 2 4.1 22:11:53 15° ESE 22:14:37 26° ENE 22:18:15 10° N
RESURS DK-1 3.4 22:15:24 10° NW 22:19:06 34° WSW 22:21:10 21° SSW
Cosmos 2333 Rocket 2.4 22:13:46 10° NNW 22:19:30 69° WSW 22:23:08 23° SSE
SL-14 R/B 4.4 22:17:25 11° SW 22:20:49 39° WNW 22:24:25 10° N
SL-16 R/B 3.5 22:16:56 10° NW 22:21:52 31° WSW 22:25:47 15° SSW
Cosmos 1300 4.2 22:21:38 10° NNW 22:24:40 27° W 22:26:54 15° SW
Atlas Centaur 2 4.2 22:19:47 10° SW 22:24:57 18° SSW 22:25:49 18° S
EXPRESS MD2 2.0 22:24:30 10° W 22:26:47 70° N 22:27:54 24° ENE
OPS 8737 4.0 22:24:49 10° NW 22:27:45 80° NE 22:28:45 38° SE
SL-08 R/B 4.5 22:25:46 22° S 22:29:51 71° E 22:35:56 10° NNE
BREEZE-M DEB (TANK) 3.9 22:14:22 10° W 22:31:38 87° N 22:35:52 10° E
Aureole 3 3.9 22:30:50 19° SSW 22:33:24 56° WNW 22:37:58 10° N
Cosmos 1346 Rocket 4.3 22:30:58 10° NNW 22:34:19 28° W 22:36:35 16° SW
Cosmos 1703 Rocket 3.7 22:32:44 29° SSE 22:34:53 62° E 22:39:18 10° NNE
Cosmos 1833 4.1 22:30:08 13° SSW 22:35:10 88° ESE 22:40:50 10° NNE
Cosmos 1862 Rocket 4.5 22:32:48 14° SW 22:36:23 45° WNW 22:40:39 10° N
DNEPR-1 R/B 4.3 22:29:34 10° NW 22:36:26 86° SW 22:39:56 25° SE
Meteor 1-4 Rocket 2.9 22:41:49 27° SW 22:43:03 45° WNW 22:45:59 10° N
Cosmos 1932 4.4 22:38:31 14° SSW 22:43:59 70° ESE 22:50:14 10° NE
Cosmos 839 Rocket 4.2 22:37:05 10° NW 22:44:00 68° WSW 22:47:42 25° SSE
Cosmos 2322 3.8 22:40:16 10° NNW 22:45:58 71° ENE 22:49:29 24° SE
Cosmos 2237 Rocket 3.7 22:41:56 10° NNW 22:46:56 30° NE 22:51:53 10° ESE
BlueWalker 3 3.9 22:50:03 15° ESE 22:50:03 15° ESE 22:51:10 10° E
ATLAS 2AS CENTAUR R/B 3.0 22:45:06 10° NW 22:51:38 50° WSW 22:55:16 25° S
SL-27 R/B 4.0 22:50:57 12° WSW 22:52:53 23° WNW 22:55:14 10° N
ARIANE 5 R/B 3.2 22:54:58 27° SSW 22:56:59 46° W 23:01:11 10° NNW
SL-24 R/B - RUBIN 2 4.5 22:51:12 10° NW 22:57:50 74° SW 23:01:28 26° SSE
PSLV R/B 4.1 22:56:49 10° N 23:00:49 65° WNW 23:02:50 27° SSW
Okean 2 4.2 23:00:22 22° SW 23:02:38 45° WNW 23:06:31 10° N
Cosmos 2322 Rocket 3.8 23:01:53 10° NW 23:06:11 23° WSW 23:09:15 15° SW
Cosmos 1570 Rocket 4.0 23:01:17 10° NNW 23:06:40 81° WSW 23:09:22 30° SSE
Cosmos 1703 4.1 23:06:48 29° ESE 23:07:37 32° E 23:10:57 10° NNE
PSLV R/B 4.5 23:03:53 10° NNE 23:07:45 33° E 23:08:58 28° SE
SJ 16-02 2.3 23:05:36 14° SW 23:09:01 42° WNW 23:13:10 10° N
Cosmos 1745 Rocket 4.0 23:05:11 26° S 23:09:01 86° E 23:15:26 10° N
Cosmos 1241 Rocket 4.5 23:04:14 12° SW 23:10:05 84° NW 23:16:23 10° NE
COSMOS 2455 3.5 23:08:59 27° SSE 23:11:21 38° ESE 23:16:51 10° NE
Cosmos 2297 Rocket 3.3 23:13:10 23° SE 23:15:06 28° ESE 23:19:50 10° NE
Nadezhda 1 Rocket 4.2 23:11:51 10° NNW 23:18:08 67° W 23:21:42 27° S
GP-B 4.1 23:15:37 10° NNW 23:19:44 39° W 23:22:05 22° SW
Cosmos 1408 1.8 23:22:14 72° S 23:22:30 86° ESE 23:25:30 10° N
USA 281 4.1 23:19:37 22° SSW 23:23:12 37° WSW 23:29:15 10° NW
COSMOS 2428 2.7 23:19:36 10° NNW 23:25:18 75° WSW 23:28:12 30° SSE
SL-4 R/B 2.3 23:21:56 10° WNW 23:25:59 70° NNE 23:30:15 10° E
GEOS 3 Rocket 4.2 23:25:03 10° NE 23:29:52 38° ESE 23:31:28 31° SSE
ATLAS CENTAUR R/B 3.2 23:28:56 10° W 23:31:56 25° NW 23:35:00 10° NNE
Cosmos 1782 Rocket 4.1 23:28:29 10° NNW 23:32:38 46° W 23:34:15 31° SW
CZ-3 Stage 3 4.5 23:13:27 10° W 23:33:30 27° SW 23:37:06 23° SSW
Cosmos 1953 4.3 23:31:46 10° NW 23:34:26 18° W 23:35:58 15° WSW
Cosmos 2219 Rocket 3.2 23:30:07 10° NW 23:35:05 32° WSW 23:37:28 23° SW
Cosmos 1242 Rocket 3.8 23:35:32 20° W 23:36:15 22° WNW 23:38:31 10° NNW
Cosmos 1455 4.1 23:33:58 10° NW 23:36:18 17° W 23:37:25 15° WSW
H-2A R/B 3.7 23:35:29 25° SW 23:37:02 32° W 23:40:54 10° NNW
Cosmos 2208 Rocket 4.1 23:32:14 10° NNW 23:37:22 60° WSW 23:39:34 33° S
Cosmos 1892 4.0 23:38:13 23° ESE 23:38:55 24° E 23:41:48 10° NE
Cosmos 158 Rocket 4.2 23:34:36 10° NNW 23:39:52 61° WSW 23:42:07 33° S
Cosmos 371 Rocket 3.4 23:38:59 35° S 23:40:50 61° ESE 23:45:36 10° NNE
BREEZE-M DEB (TANK) 4.1 23:38:58 10° W 23:42:35 86° N 23:54:56 10° E
NOSS 8 (E) 4.3 23:45:43 47° SSW 23:46:38 76° SE 23:49:47 10° NE
Cosmos 773 Rocket 3.9 23:42:05 10° NNW 23:47:16 88° ENE 23:49:51 30° SSE
Cosmos 2151 Rocket 3.9 23:43:48 10° N 23:48:10 57° ENE 23:50:03 31° SE
USA 234 4.4 23:42:42 10° ENE 23:48:50 44° N 23:54:57 10° WNW
ALOS 2 3.4 23:49:16 29° SW 23:50:47 39° W 23:54:55 10° NNW
GENESIS II 4.2 23:49:40 32° WSW 23:51:12 68° NW 23:54:50 10° NE
Cosmos 2263 Rocket 4.4 23:51:28 10° ESE 23:53:03 11° E 23:54:38 10° ENE
Cosmos 1503 Rocket 4.2 23:51:55 32° S 23:54:17 62° ESE 23:59:31 10° NNE
Okean 2 Rocket 3.4 23:51:04 10° N 23:55:31 62° ENE 23:57:29 31° SSE
Cosmos 2360 Rocket 4.4 23:55:49 10° WNW 23:57:21 11° W 23:58:53 10° WSW
